Location: Bishop�s Knoyle
(51.0728°N, 2.1714°W)
Time: 02:02:31
(UTC+00:00)

Nauka - Pass Details

Date: 27 September 2021
Orbit: 417 x 423 km, 51.6° (Epoch: 26 October)

Event Time Altitude Azimuth Distance (km) Brightness Sun altitude
Rises 19:45:43 0° 281° (WNW) 2,367 ? -17.9°
Reaches altitude 10° 19:47:49 10° 281° (W) 1,503 ? -18.2°
Maximum altitude 19:51:11 81° 194° (SSW) 430 ? -18.7°
Enters shadow 19:51:30 70° 128° (SE) 451 ? -18.8°
